Regional Weather Roundup
Issued by NWS Sioux Falls, SD

Home | Current Version | Previous Version | Text Only | Print | Product List | Glossary On
Versions: 1 2 3 4 5 6 7 8 9 10 11 12 13 14 15 16 17 18 19 20 21 22 23 24 25 26 27 28 29 30 31 32 33 34 35 36 37 38 39 40 41 42 43 44 45 46 47 48 49 50
000
ASUS43 KFSD 302102
RWRFSD

WEATHER ROUNDUP FOR SE SOUTH DAKOTA/SW MINNESOTA/NW IOWA
NATIONAL WEATHER SERVICE SIOUX FALLS SD
400 PM CDT THU JUL 30 2015

NOTE: "FAIR" INDICATES FEW OR NO CLOUDS BELOW 12,000 FEET WITH NO
SIGNIFICANT WEATHER AND OR OBSTRUCTIONS TO VISIBILITY.


SDZ038>040-050-052>070-302200-
SOUTHEAST SOUTH DAKOTA

CITY           SKY/WX    TMP DP  RH WIND       PRES   REMARKS
BROOKINGS      SUNNY     82  55  39 W12G17    30.14F
CHAMBERLAIN    SUNNY     88  47  23 CALM      30.14F
HURON          SUNNY     88  51  28 NW10      30.11F
MADISON        FAIR      84  57  39 W8        30.15F
MITCHELL       SUNNY     90  56  31 CALM      30.12F
SIOUX FALLS    MOSUNNY   86  60  41 W7        30.13F
WINNER         FAIR      93  45  19 W9        30.16F
YANKTON        SUNNY     88  63  42 W9        30.11F
$$

MNZ071-072-080-081-089-090-097-098-302200-
SOUTHWEST MINNESOTA

CITY           SKY/WX    TMP DP  RH WIND       PRES   REMARKS
FAIRMONT       SUNNY     84  55  37 W7        30.11F
JACKSON        SUNNY     84  59  42 W7        30.13F
LUVERNE        SUNNY     86  63  45 W7        30.14F
MARSHALL       SUNNY     84  52  32 W12       30.11F
MONTEVIDEO     SUNNY     88  61  40 NW6       30.09F
PIPESTONE      SUNNY     82  57  42 W3        30.14F
REDWOOD FALLS  SUNNY     85  55  35 W12       30.08F
TRACY          SUNNY     84  59  42 NW5       30.12F
WINDOM         SUNNY     84  55  37 W9        30.12F
WORTHINGTON    SUNNY     82  57  42 W8        30.14F
$$

IAZ001>003-012>014-020>022-031-032-NEZ013-014-SDZ071-302200-
NORTHWEST IOWA

CITY           SKY/WX    TMP DP  RH WIND       PRES   REMARKS
DENISON        SUNNY     84  66  54 W9        30.14F HAZE
ESTHERVILLE    SUNNY     83  59  44 W9        30.12F
SIOUX CITY     SUNNY     87  67  51 W6        30.13F
SPENCER        SUNNY     87  62  43 W9        30.14S
$$

ABBREVIATIONS USED IN REMARKS
   TC - TEMPERATURE IN CELSIUS
  WCI - WIND CHILL INDEX
   HX - HEAT INDEX
  VSB - VISIBILITY



USA.gov is the U.S. government's official web portal to all federal, state and local government web resources and services.